| time (UTC) | temp C | wind direction | speed KPH | gust KPH | rain 1hr cm | rain 24hr cm | rain mn cm | humidity % | barometer mb |
| 20260506004956 | 7 | 0 | 8.0 | 9.7 | 0.00 | 0.91 | 0.91 | 96 | 1057.2 |
| 20260506004454 | 7 | 354 | 9.7 | 12.9 | 0.00 | 0.91 | 0.91 | 96 | 1057.2 |
| 20260506003950 | 7 | 23 | 8.0 | 11.3 | 0.00 | 0.91 | 0.91 | 96 | 1056.7 |
| 20260506003447 | 7 | 37 | 6.4 | 11.3 | 0.00 | 0.91 | 0.91 | 96 | 1056.8 |
| 20260506002943 | 7 | 17 | 4.8 | 8.0 | 0.00 | 0.91 | 0.91 | 96 | 1056.8 |
| 20260506002439 | 7 | 4 | 6.4 | 8.0 | 0.00 | 0.91 | 0.91 | 96 | 1056.3 |
| 20260506001935 | 8 | 352 | 4.8 | 4.8 | 0.00 | 0.91 | 0.91 | 96 | 1056.3 |
| 20260506001432 | 8 | 340 | 4.8 | 8.0 | 0.00 | 0.91 | 0.91 | 95 | 1056.6 |
| 20260506000929 | 8 | 12 | 3.2 | 4.8 | 0.00 | 0.91 | 0.91 | 95 | 1056.3 |
| 20260506000427 | 8 | 354 | 8.0 | 11.3 | 0.00 | 0.91 | 0.91 | 94 | 1056.6 |
| 20260505235923 | 8 | 0 | 4.8 | 8.0 | 0.00 | 0.91 | 0.91 | 94 | 1055.9 |
| 20260505235422 | 8 | 31 | 3.2 | 8.0 | 0.00 | 0.91 | 0.91 | 94 | 1056.0 |
| 20260505234918 | 8 | 41 | 6.4 | 8.0 | 0.00 | 0.91 | 0.91 | 94 | 1055.9 |
| 20260505234416 | 8 | 20 | 6.4 | 9.7 | 0.00 | 0.91 | 0.91 | 93 | 1056.0 |
| 20260505233912 | 8 | 36 | 6.4 | 11.3 | 0.00 | 0.91 | 0.91 | 93 | 1055.8 |
| 20260505233410 | 8 | 5 | 8.0 | 11.3 | 0.00 | 0.91 | 0.91 | 93 | 1056.0 |
| 20260505232907 | 8 | 357 | 9.7 | 12.9 | 0.00 | 0.91 | 0.91 | 93 | 1055.9 |
| 20260505232405 | 8 | 113 | 0.0 | 1.6 | 0.00 | 0.91 | 0.91 | 93 | 1055.7 |
| 20260505231901 | 8 | 24 | 8.0 | 11.3 | 0.00 | 0.91 | 0.91 | 93 | 1056.0 |
| 20260505231359 | 8 | 18 | 8.0 | 9.7 | 0.00 | 0.91 | 0.91 | 94 | 1056.0 |
| 20260505230857 | 8 | 84 | 6.4 | 8.0 | 0.00 | 0.91 | 0.91 | 94 | 1055.9 |
| 20260505230354 | 8 | 9 | 9.7 | 11.3 | 0.00 | 0.91 | 0.91 | 94 | 1055.6 |
| 20260505225851 | 8 | 3 | 11.3 | 12.9 | 0.00 | 0.91 | 0.91 | 95 | 1055.7 |
| 20260505225348 | 8 | 338 | 8.0 | 11.3 | 0.00 | 0.91 | 0.91 | 95 | 1055.5 |
| 20260505224843 | 8 | 20 | 4.8 | 8.0 | 0.00 | 0.91 | 0.91 | 95 | 1055.5 |
| 20260505224341 | 8 | 329 | 11.3 | 14.5 | 0.00 | 0.91 | 0.91 | 95 | 1055.4 |
| 20260505223838 | 8 | 9 | 8.0 | 14.5 | 0.00 | 0.91 | 0.91 | 95 | 1055.2 |
| 20260505223335 | 9 | 22 | 4.8 | 4.8 | 0.00 | 0.91 | 0.91 | 95 | 1055.2 |
| 20260505222831 | 9 | 342 | 11.3 | 16.1 | 0.00 | 0.91 | 0.91 | 94 | 1055.1 |
| 20260505222327 | 9 | 10 | 4.8 | 8.0 | 0.00 | 0.91 | 0.91 | 94 | 1055.7 |
| 20260505221824 | 9 | 21 | 1.6 | 1.6 | 0.00 | 0.91 | 0.91 | 93 | 1055.8 |
| 20260505221321 | 9 | 349 | 14.5 | 17.7 | 0.00 | 0.91 | 0.91 | 94 | 1055.7 |
| 20260505220818 | 9 | 35 | 6.4 | 8.0 | 0.00 | 0.91 | 0.91 | 94 | 1055.2 |
| 20260505220315 | 10 | 331 | 11.3 | 22.5 | 0.00 | 0.91 | 0.91 | 95 | 1055.2 |
| 20260505215813 | 10 | 17 | 8.0 | 11.3 | 0.00 | 0.91 | 0.91 | 95 | 1054.9 |
| 20260505215311 | 10 | 28 | 6.4 | 9.7 | 0.00 | 0.91 | 0.91 | 95 | 1055.0 |
| 20260505214808 | 10 | 20 | 4.8 | 8.0 | 0.00 | 0.91 | 0.91 | 95 | 1055.1 |
| 20260505214306 | 10 | 24 | 6.4 | 9.7 | 0.00 | 0.91 | 0.91 | 95 | 1055.0 |
| 20260505213802 | 10 | 289 | 6.4 | 8.0 | 0.00 | 0.91 | 0.91 | 95 | 1055.0 |
| 20260505213301 | 10 | 31 | 3.2 | 3.2 | 0.00 | 0.91 | 0.91 | 95 | 1055.1 |
| 20260505212755 | 10 | 43 | 4.8 | 4.8 | 0.00 | 0.91 | 0.91 | 95 | 1054.8 |
| 20260505212253 | 10 | 351 | 6.4 | 8.0 | 0.00 | 0.91 | 0.91 | 94 | 1055.1 |
| 20260505211750 | 10 | 37 | 4.8 | 8.0 | 0.00 | 0.91 | 0.91 | 95 | 1055.0 |
| 20260505211248 | 10 | 54 | 6.4 | 9.7 | 0.00 | 0.91 | 0.91 | 95 | 1055.1 |
| 20260505210743 | 10 | 15 | 6.4 | 9.7 | 0.00 | 0.91 | 0.91 | 95 | 1054.9 |
| 20260505210241 | 10 | 334 | 6.4 | 8.0 | 0.00 | 0.91 | 0.91 | 95 | 1054.9 |
| 20260505205738 | 10 | 341 | 4.8 | 8.0 | 0.00 | 0.91 | 0.91 | 95 | 1054.9 |
| 20260505205236 | 10 | 33 | 4.8 | 8.0 | 0.00 | 0.91 | 0.91 | 95 | 1054.9 |
| 20260505204732 | 10 | 349 | 11.3 | 12.9 | 0.00 | 0.91 | 0.91 | 95 | 1055.0 |
| 20260505204230 | 11 | 24 | 8.0 | 11.3 | 0.00 | 0.91 | 0.91 | 95 | 1054.9 |
| 20260505203727 | 11 | 350 | 8.0 | 8.0 | 0.00 | 0.91 | 0.91 | 95 | 1055.2 |
| 20260505203224 | 11 | 7 | 4.8 | 4.8 | 0.00 | 0.91 | 0.91 | 95 | 1055.2 |
| 20260505202720 | 11 | 28 | 4.8 | 4.8 | 0.00 | 0.91 | 0.91 | 96 | 1055.4 |
| 20260505202216 | 11 | 298 | 6.4 | 8.0 | 0.00 | 0.91 | 0.91 | 96 | 1055.3 |
| 20260505201713 | 11 | 326 | 8.0 | 11.3 | 0.00 | 0.91 | 0.91 | 96 | 1055.1 |
| 20260505201211 | 11 | 332 | 8.0 | 14.5 | 0.00 | 0.91 | 0.91 | 96 | 1054.4 |
| 20260505200708 | 11 | 326 | 14.5 | 17.7 | 0.00 | 0.91 | 0.91 | 97 | 1054.3 |
| 20260505200205 | 11 | 31 | 12.9 | 16.1 | 0.00 | 0.91 | 0.91 | 97 | 1054.4 |
| 20260505195701 | 11 | 22 | 3.2 | 3.2 | 0.00 | 0.91 | 0.91 | 97 | 1054.6 |
| 20260505195158 | 11 | 350 | 3.2 | 4.8 | 0.00 | 0.91 | 0.91 | 98 | 1054.4 |
| 20260505194655 | 11 | 333 | 6.4 | 11.3 | 0.00 | 0.91 | 0.91 | 98 | 1054.4 |
| 20260505194151 | 11 | 43 | 6.4 | 8.0 | 0.00 | 0.91 | 0.91 | 98 | 1054.3 |
| 20260505193648 | 11 | 35 | 6.4 | 9.7 | 0.00 | 0.91 | 0.91 | 98 | 1054.7 |
| 20260505193145 | 11 | 34 | 4.8 | 4.8 | 0.00 | 0.91 | 0.91 | 98 | 1054.9 |
| 20260505192644 | 11 | 41 | 4.8 | 8.0 | 0.00 | 0.91 | 0.91 | 98 | 1055.1 |
| 20260505192141 | 11 | 2 | 6.4 | 9.7 | 0.00 | 0.91 | 0.91 | 98 | 1054.9 |
| 20260505191639 | 11 | 1 | 4.8 | 4.8 | 0.00 | 0.91 | 0.91 | 98 | 1054.6 |
| 20260505191137 | 11 | 30 | 1.6 | 3.2 | 0.00 | 0.91 | 0.91 | 98 | 1054.8 |
| 20260505190633 | 12 | 323 | 8.0 | 9.7 | 0.00 | 0.91 | 0.91 | 98 | 1054.7 |
| 20260505190133 | 12 | 328 | 4.8 | 4.8 | 0.00 | 0.91 | 0.91 | 98 | 1054.7 |
| 20260505185630 | 12 | 336 | 6.4 | 8.0 | 0.00 | 0.91 | 0.91 | 98 | 1054.3 |
| 20260505185126 | 12 | 328 | 8.0 | 9.7 | 0.00 | 0.91 | 0.91 | 98 | 1053.9 |
| 20260505184623 | 12 | 35 | 11.3 | 17.7 | 0.00 | 0.91 | 0.91 | 98 | 1054.0 |
| 20260505184120 | 12 | 14 | 6.4 | 8.0 | 0.00 | 0.91 | 0.91 | 98 | 1054.0 |
| 20260505183616 | 12 | 351 | 6.4 | 8.0 | 0.00 | 0.91 | 0.91 | 98 | 1054.3 |
| 20260505183114 | 12 | 12 | 11.3 | 14.5 | 0.00 | 0.91 | 0.91 | 97 | 1054.3 |
| 20260505182610 | 12 | 10 | 8.0 | 9.7 | 0.00 | 0.91 | 0.91 | 97 | 1054.4 |
| 20260505182107 | 12 | 351 | 8.0 | 9.7 | 0.00 | 0.91 | 0.91 | 97 | 1054.1 |
| 20260505181604 | 12 | 82 | 8.0 | 11.3 | 0.00 | 0.91 | 0.91 | 97 | 1054.3 |
| 20260505181101 | 13 | 354 | 8.0 | 9.7 | 0.00 | 0.91 | 0.91 | 97 | 1054.2 |
| 20260505180556 | 13 | 33 | 8.0 | 11.3 | 0.00 | 0.91 | 0.91 | 97 | 1054.4 |
| 20260505180055 | 13 | 336 | 6.4 | 8.0 | 0.13 | 0.91 | 0.91 | 97 | 1054.2 |
| 20260505175550 | 13 | 8 | 8.0 | 12.9 | 0.13 | 0.91 | 0.91 | 97 | 1054.3 |
| 20260505175047 | 13 | 33 | 14.5 | 17.7 | 0.00 | 0.89 | 0.89 | 97 | 1054.0 |
| 20260505174544 | 14 | 11 | 8.0 | 11.3 | 0.00 | 0.89 | 0.89 | 96 | 1054.1 |
| 20260505174039 | 14 | 65 | 8.0 | 11.3 | 0.00 | 0.89 | 0.89 | 96 | 1053.9 |
| 20260505173537 | 15 | 349 | 6.4 | 8.0 | 0.00 | 0.89 | 0.89 | 96 | 1054.0 |
| 20260505173033 | 15 | 356 | 3.2 | 3.2 | 0.00 | 0.89 | 0.89 | 96 | 1054.0 |
| 20260505172531 | 15 | 36 | 4.8 | 4.8 | 0.00 | 0.89 | 0.89 | 96 | 1053.8 |
| 20260505172027 | 15 | 32 | 1.6 | 1.6 | 0.00 | 0.89 | 0.89 | 96 | 1053.9 |
| 20260505171522 | 15 | 52 | 4.8 | 9.7 | 0.00 | 0.89 | 0.89 | 96 | 1054.1 |
| 20260505171020 | 15 | 11 | 4.8 | 8.0 | 0.00 | 0.89 | 0.89 | 96 | 1054.0 |
| 20260505170516 | 15 | 5 | 9.7 | 11.3 | 0.18 | 0.89 | 0.89 | 95 | 1053.9 |
| 20260505170013 | 15 | 352 | 3.2 | 3.2 | 0.18 | 0.89 | 0.89 | 95 | 1053.9 |
| 20260505165508 | 16 | 7 | 9.7 | 12.9 | 0.00 | 0.86 | 0.86 | 93 | 1053.7 |
| 20260505165004 | 16 | 314 | 4.8 | 4.8 | 0.00 | 0.86 | 0.86 | 93 | 1053.9 |
| 20260505164500 | 17 | 43 | 0.0 | 1.6 | 0.00 | 0.86 | 0.86 | 92 | 1053.7 |
| 20260505163958 | 17 | 109 | 4.8 | 8.0 | 0.00 | 0.86 | 0.86 | 92 | 1053.5 |
| 20260505163456 | 17 | 8 | 1.6 | 1.6 | 0.00 | 0.86 | 0.86 | 92 | 1053.8 |
| 20260505162956 | 17 | 16 | 0.0 | 1.6 | 0.00 | 0.86 | 0.86 | 92 | 1053.8 |
| 20260505162451 | 17 | 91 | 3.2 | 3.2 | 0.00 | 0.86 | 0.86 | 92 | 1053.8 |
| 20260505161948 | 17 | 98 | 1.6 | 3.2 | 0.00 | 0.86 | 0.86 | 91 | 1053.9 |
| 20260505161444 | 17 | 109 | 0.0 | 1.6 | 0.00 | 0.86 | 0.86 | 91 | 1054.0 |
| 20260505160942 | 17 | 113 | 3.2 | 3.2 | 0.00 | 0.86 | 0.86 | 90 | 1053.9 |
| 20260505160440 | 17 | 116 | 1.6 | 3.2 | 0.00 | 0.86 | 0.86 | 90 | 1053.8 |
| 20260505152910 | 17 | 135 | 8.0 | 9.7 | 0.00 | 0.86 | 0.86 | 91 | 1053.3 |
| 20260505152407 | 17 | 128 | 8.0 | 11.3 | 0.00 | 0.86 | 0.86 | 93 | 1053.2 |
| 20260505151901 | 17 | 110 | 6.4 | 9.7 | 0.00 | 0.86 | 0.86 | 93 | 1053.2 |
| 20260505151358 | 17 | 111 | 4.8 | 8.0 | 0.00 | 0.86 | 0.86 | 94 | 1053.5 |
| 20260505150855 | 16 | 112 | 9.7 | 12.9 | 0.00 | 0.86 | 0.86 | 94 | 1053.3 |
| 20260505150352 | 16 | 116 | 8.0 | 11.3 | 0.00 | 0.86 | 0.86 | 95 | 1053.4 |
| 20260505140311 | 15 | 111 | 3.2 | 3.2 | 0.00 | 0.86 | 0.86 | 99 | 1053.9 |
| 20260505130229 | 15 | 116 | 1.6 | 1.6 | 0.00 | 0.86 | 0.86 | 99 | 1053.9 |
| 20260505124719 | 15 | 140 | 0.0 | 0.0 | 0.00 | 0.86 | 0.86 | 99 | 1053.7 |
| 20260505124216 | 15 | 113 | 3.2 | 3.2 | 0.00 | 0.86 | 0.86 | 99 | 1053.2 |
| 20260505123711 | 15 | 42 | 0.0 | 1.6 | 0.00 | 0.86 | 0.86 | 99 | 1053.5 |
| 20260505123208 | 15 | 329 | 3.2 | 3.2 | 0.00 | 0.86 | 0.86 | 99 | 1053.4 |
| 20260505122704 | 15 | 348 | 1.6 | 3.2 | 0.00 | 0.86 | 0.86 | 99 | 1053.2 |
| 20260505122201 | 15 | 19 | 1.6 | 1.6 | 0.00 | 0.86 | 0.86 | 99 | 1053.1 |
| 20260505121653 | 15 | 1 | 4.8 | 4.8 | 0.00 | 0.86 | 0.86 | 99 | 1053.0 |
| 20260505121149 | 15 | 346 | 4.8 | 8.0 | 0.00 | 0.86 | 0.86 | 99 | 1053.3 |
| 20260505120645 | 15 | 8 | 4.8 | 4.8 | 0.00 | 0.86 | 0.86 | 99 | 1053.4 |
| 20260505120141 | 15 | 276 | 8.0 | 11.3 | 0.00 | 0.86 | 0.86 | 99 | 1053.1 |
| 20260505115635 | 15 | 14 | 4.8 | 4.8 | 0.00 | 0.86 | 0.86 | 99 | 1053.0 |
| 20260505115134 | 15 | 359 | 6.4 | 8.0 | 0.00 | 0.86 | 0.86 | 99 | 1053.1 |
| 20260505114630 | 15 | 9 | 4.8 | 8.0 | 0.00 | 0.86 | 0.86 | 99 | 1052.9 |
| 20260505114127 | 15 | 2 | 4.8 | 8.0 | 0.00 | 0.86 | 0.86 | 99 | 1052.9 |
| 20260505113623 | 15 | 1 | 4.8 | 4.8 | 0.00 | 0.86 | 0.86 | 99 | 1052.5 |
| 20260505113120 | 14 | 145 | 1.6 | 1.6 | 0.00 | 0.86 | 0.86 | 99 | 1052.3 |
| 20260505112616 | 15 | 194 | 1.6 | 1.6 | 0.00 | 0.86 | 0.86 | 99 | 1052.3 |
| 20260505112114 | 14 | 195 | 0.0 | 0.0 | 0.00 | 0.86 | 0.86 | 99 | 1052.2 |
| 20260505111608 | 14 | 195 | 1.6 | 1.6 | 0.00 | 0.86 | 0.86 | 99 | 1052.3 |
| 20260505111104 | 14 | 150 | 0.0 | 0.0 | 0.00 | 0.86 | 0.86 | 99 | 1052.4 |
| 20260505110601 | 15 | 180 | 4.8 | 4.8 | 0.00 | 0.86 | 0.86 | 99 | 1052.3 |
| 20260505102033 | 15 | 170 | 3.2 | 3.2 | 0.00 | 0.81 | 0.81 | 99 | 1052.9 |
| 20260505101532 | 15 | 147 | 4.8 | 4.8 | 0.00 | 0.81 | 0.81 | 99 | 1052.8 |
| 20260505101027 | 15 | 137 | 1.6 | 3.2 | 0.00 | 0.81 | 0.81 | 99 | 1052.5 |
| 20260505100525 | 15 | 131 | 4.8 | 4.8 | 0.13 | 0.81 | 0.81 | 99 | 1052.7 |
| 20260505100022 | 15 | 157 | 3.2 | 3.2 | 0.13 | 0.81 | 0.81 | 99 | 1052.2 |
| 20260505095517 | 15 | 144 | 4.8 | 4.8 | 0.00 | 0.79 | 0.79 | 99 | 1052.5 |
| 20260505095014 | 15 | 162 | 4.8 | 4.8 | 0.00 | 0.79 | 0.79 | 99 | 1052.7 |
| 20260505094510 | 15 | 120 | 0.0 | 0.0 | 0.00 | 0.79 | 0.79 | 99 | 1052.6 |
| 20260505094007 | 15 | 159 | 1.6 | 1.6 | 0.00 | 0.79 | 0.79 | 99 | 1053.0 |
| 20260505093503 | 15 | 94 | 0.0 | 0.0 | 0.00 | 0.79 | 0.79 | 99 | 1052.8 |
| 20260505093001 | 15 | 352 | 0.0 | 0.0 | 0.18 | 0.79 | 0.79 | 99 | 1053.3 |
| 20260505092458 | 15 | 0 | 0.0 | 1.6 | 0.18 | 0.79 | 0.79 | 99 | 1053.1 |
| 20260505091955 | 15 | 292 | 0.0 | 1.6 | 0.18 | 0.79 | 0.79 | 99 | 1053.5 |
| 20260505091453 | 15 | 51 | 0.0 | 0.0 | 0.00 | 0.76 | 0.76 | 99 | 1052.7 |
| 20260505090951 | 15 | 331 | 4.8 | 4.8 | 0.13 | 0.76 | 0.76 | 99 | 1054.1 |
| 20260505090449 | 15 | 324 | 3.2 | 3.2 | 0.43 | 0.76 | 0.76 | 99 | 1053.9 |
| 20260505085946 | 15 | 314 | 3.2 | 3.2 | 0.48 | 0.74 | 0.74 | 99 | 1053.7 |
| 20260505085444 | 15 | 36 | 0.0 | 1.6 | 0.48 | 0.69 | 0.69 | 99 | 1052.7 |
| 20260505084942 | 15 | 41 | 0.0 | 0.0 | 0.30 | 0.66 | 0.66 | 99 | 1053.3 |
| 20260505084440 | 15 | 347 | 3.2 | 3.2 | 0.43 | 0.64 | 0.64 | 98 | 1053.5 |
| 20260505083937 | 15 | 312 | 3.2 | 3.2 | 0.48 | 0.61 | 0.61 | 98 | 1053.8 |
| 20260505083434 | 15 | 343 | 1.6 | 1.6 | 0.48 | 0.56 | 0.56 | 98 | 1053.5 |
| 20260505082931 | 15 | 351 | 4.8 | 4.8 | 0.43 | 0.53 | 0.53 | 98 | 1053.5 |
| 20260505082426 | 15 | 331 | 3.2 | 3.2 | 0.48 | 0.51 | 0.51 | 98 | 1053.5 |
| 20260505081924 | 15 | 355 | 1.6 | 1.6 | 0.48 | 0.46 | 0.46 | 98 | 1053.5 |
| 20260505081421 | 15 | 356 | 0.0 | 1.6 | 0.43 | 0.43 | 0.43 | 98 | 1053.5 |
| 20260505080917 | 15 | 347 | 4.8 | 8.0 | 0.48 | 0.41 | 0.41 | 97 | 1053.8 |
| 20260505080413 | 15 | 308 | 4.8 | 4.8 | 0.48 | 0.36 | 0.36 | 97 | 1053.8 |
| 20260505075908 | 15 | 359 | 8.0 | 9.7 | 0.48 | 0.33 | 0.33 | 97 | 1053.9 |
| 20260505075406 | 15 | 319 | 3.2 | 4.8 | 0.30 | 0.28 | 0.28 | 96 | 1054.0 |
| 20260505074903 | 15 | 340 | 3.2 | 3.2 | 0.30 | 0.28 | 0.28 | 96 | 1053.7 |
| 20260505074400 | 15 | 344 | 8.0 | 11.3 | 0.30 | 0.25 | 0.25 | 95 | 1054.0 |
| 20260505073857 | 15 | 311 | 4.8 | 4.8 | 0.30 | 0.23 | 0.23 | 95 | 1053.8 |
| 20260505073355 | 15 | 327 | 4.8 | 4.8 | 0.30 | 0.20 | 0.20 | 94 | 1053.5 |
| 20260505072852 | 15 | 5 | 4.8 | 8.0 | 0.48 | 0.18 | 0.18 | 93 | 1053.4 |
| 20260505072348 | 16 | 6 | 1.6 | 1.6 | 0.61 | 0.15 | 0.15 | 89 | 1053.3 |
| 20260505071844 | 16 | 247 | 4.8 | 4.8 | 0.61 | 0.10 | 0.10 | 84 | 1053.7 |
| 20260505071341 | 17 | 303 | 3.2 | 3.2 | 0.30 | 0.05 | 0.05 | 82 | 1053.5 |
| 20260505070839 | 17 | 330 | 3.2 | 3.2 | 0.18 | 0.03 | 0.03 | 81 | 1053.4 |
| 20260505070335 | 17 | 158 | 0.0 | 1.6 | 0.00 | 0.00 | 0.00 | 77 | 1053.4 |
| 20260505065830 | 17 | 148 | 1.6 | 1.6 | 0.00 | 0.00 | 0.00 | 76 | 1053.2 |
| 20260505065327 | 17 | 170 | 4.8 | 4.8 | 0.00 | 0.00 | 0.00 | 76 | 1053.4 |
| 20260505064825 | 17 | 171 | 6.4 | 8.0 | 0.00 | 0.00 | 0.00 | 76 | 1053.2 |
| 20260505064321 | 17 | 152 | 3.2 | 3.2 | 0.00 | 0.00 | 0.00 | 75 | 1053.3 |
| 20260505063820 | 18 | 142 | 4.8 | 4.8 | 0.00 | 0.00 | 0.00 | 75 | 1053.2 |
| 20260505063315 | 18 | 154 | 6.4 | 8.0 | 0.00 | 0.00 | 0.00 | 75 | 1053.4 |
| 20260505062812 | 18 | 157 | 4.8 | 4.8 | 0.00 | 0.00 | 0.00 | 74 | 1053.3 |
| 20260505062310 | 18 | 156 | 4.8 | 4.8 | 0.00 | 0.00 | 0.00 | 75 | 1053.7 |
| 20260505061806 | 18 | 162 | 4.8 | 4.8 | 0.00 | 0.00 | 0.00 | 74 | 1053.7 |
| 20260505061305 | 18 | 143 | 4.8 | 8.0 | 0.00 | 0.00 | 0.00 | 74 | 1053.7 |
| 20260505060802 | 18 | 160 | 4.8 | 8.0 | 0.00 | 0.00 | 0.00 | 74 | 1053.4 |
| 20260505060259 | 18 | 157 | 4.8 | 4.8 | 0.00 | 0.00 | 0.00 | 74 | 1054.0 |
| 20260505055754 | 18 | 158 | 4.8 | 4.8 | 0.00 | 0.00 | 0.00 | 73 | 1054.0 |
| 20260505055250 | 18 | 159 | 4.8 | 4.8 | 0.00 | 0.00 | 0.00 | 73 | 1053.8 |
| 20260505054748 | 18 | 173 | 4.8 | 4.8 | 0.00 | 0.00 | 0.00 | 72 | 1053.9 |
| 20260505054245 | 18 | 149 | 4.8 | 4.8 | 0.00 | 0.00 | 0.00 | 73 | 1054.0 |
| 20260505053744 | 18 | 139 | 4.8 | 4.8 | 0.00 | 0.00 | 0.00 | 73 | 1053.8 |
| 20260505053240 | 18 | 146 | 4.8 | 4.8 | 0.00 | 0.00 | 0.00 | 74 | 1053.4 |
| 20260505052737 | 18 | 141 | 4.8 | 4.8 | 0.00 | 0.00 | 0.00 | 74 | 1053.5 |
| 20260505052234 | 18 | 142 | 4.8 | 4.8 | 0.00 | 0.00 | 0.00 | 74 | 1053.5 |
| 20260505051731 | 18 | 138 | 4.8 | 4.8 | 0.00 | 0.00 | 0.00 | 73 | 1053.4 |
| 20260505051229 | 18 | 133 | 4.8 | 4.8 | 0.00 | 0.00 | 0.00 | 74 | 1053.7 |
| 20260505050727 | 18 | 140 | 4.8 | 4.8 | 0.00 | 0.00 | 0.00 | 74 | 1053.8 |
| 20260505050225 | 18 | 133 | 4.8 | 4.8 | 0.00 | 0.00 | 0.00 | 73 | 1053.9 |
| 20260505041654 | 18 | 156 | 4.8 | 4.8 | 0.00 | 0.00 | 0.00 | 71 | 1054.2 |
| 20260505041152 | 18 | 170 | 4.8 | 4.8 | 0.00 | 0.00 | 0.00 | 70 | 1054.2 |
| 20260505040649 | 19 | 157 | 4.8 | 4.8 | 0.00 | 0.00 | 0.00 | 70 | 1054.3 |
| 20260505040146 | 19 | 142 | 4.8 | 4.8 | 0.00 | 0.00 | 0.00 | 69 | 1054.4 |
| 20260505035642 | 19 | 153 | 6.4 | 8.0 | 0.00 | 0.00 | 0.00 | 69 | 1054.2 |
| 20260505035138 | 19 | 183 | 6.4 | 9.7 | 0.00 | 0.00 | 0.00 | 69 | 1054.5 |
| 20260505034635 | 19 | 162 | 4.8 | 8.0 | 0.00 | 0.00 | 0.00 | 69 | 1054.5 |
| 20260505034132 | 19 | 150 | 6.4 | 8.0 | 0.00 | 0.00 | 0.00 | 68 | 1054.4 |
| 20260505033628 | 19 | 174 | 6.4 | 8.0 | 0.00 | 0.00 | 0.00 | 68 | 1054.5 |
| 20260505033127 | 19 | 185 | 9.7 | 11.3 | 0.00 | 0.00 | 0.00 | 68 | 1054.4 |
| 20260505032625 | 20 | 166 | 8.0 | 11.3 | 0.00 | 0.00 | 0.00 | 67 | 1054.6 |
| 20260505032121 | 20 | 154 | 8.0 | 8.0 | 0.00 | 0.00 | 0.00 | 67 | 1054.9 |
| 20260505031618 | 20 | 148 | 4.8 | 4.8 | 0.00 | 0.00 | 0.00 | 67 | 1054.9 |
| 20260505031114 | 20 | 153 | 4.8 | 4.8 | 0.00 | 0.00 | 0.00 | 67 | 1054.8 |
| 20260505030611 | 20 | 148 | 4.8 | 4.8 | 0.00 | 0.00 | 0.00 | 67 | 1054.6 |
| 20260505030106 | 20 | 169 | 6.4 | 8.0 | 0.00 | 0.00 | 0.00 | 67 | 1054.7 |
| 20260505025602 | 20 | 157 | 8.0 | 9.7 | 0.00 | 0.00 | 0.00 | 66 | 1054.6 |
| 20260505025057 | 20 | 173 | 4.8 | 8.0 | 0.00 | 0.00 | 0.00 | 66 | 1054.7 |
| 20260505024553 | 20 | 152 | 4.8 | 4.8 | 0.00 | 0.00 | 0.00 | 64 | 1054.6 |
| 20260505024051 | 20 | 143 | 4.8 | 4.8 | 0.00 | 0.00 | 0.00 | 63 | 1054.6 |
| 20260505023548 | 20 | 145 | 4.8 | 4.8 | 0.00 | 0.00 | 0.00 | 62 | 1054.6 |
| 20260505023045 | 20 | 170 | 4.8 | 4.8 | 0.00 | 0.00 | 0.00 | 62 | 1054.4 |
| 20260505022543 | 21 | 164 | 3.2 | 3.2 | 0.00 | 0.00 | 0.00 | 62 | 1054.3 |
| 20260505022040 | 21 | 175 | 4.8 | 4.8 | 0.00 | 0.00 | 0.00 | 61 | 1054.1 |
| 20260505021536 | 21 | 189 | 4.8 | 4.8 | 0.00 | 0.00 | 0.00 | 61 | 1054.3 |
| 20260505021033 | 21 | 164 | 4.8 | 8.0 | 0.00 | 0.00 | 0.00 | 61 | 1054.2 |
| 20260505020532 | 21 | 157 | 8.0 | 9.7 | 0.00 | 0.00 | 0.00 | 61 | 1054.2 |
| 20260505020030 | 21 | 193 | 4.8 | 4.8 | 0.00 | 0.00 | 0.00 | 61 | 1053.9 |
| 20260505015527 | 21 | 177 | 4.8 | 4.8 | 0.00 | 0.00 | 0.00 | 61 | 1053.9 |
| 20260505015024 | 21 | 176 | 6.4 | 8.0 | 0.00 | 0.00 | 0.00 | 61 | 1053.7 |
| 20260505014520 | 21 | 181 | 4.8 | 4.8 | 0.00 | 0.00 | 0.00 | 60 | 1053.8 |
| 20260505014018 | 21 | 174 | 9.7 | 11.3 | 0.00 | 0.00 | 0.00 | 61 | 1053.5 |
| 20260505013515 | 21 | 182 | 4.8 | 4.8 | 0.00 | 0.00 | 0.00 | 61 | 1053.5 |
| 20260505013012 | 21 | 147 | 8.0 | 9.7 | 0.00 | 0.00 | 0.00 | 60 | 1053.5 |
| 20260505012510 | 21 | 146 | 6.4 | 8.0 | 0.00 | 0.00 | 0.00 | 61 | 1053.5 |
| 20260505012007 | 21 | 169 | 6.4 | 8.0 | 0.00 | 0.00 | 0.00 | 61 | 1053.3 |
| 20260505011502 | 21 | 189 | 4.8 | 4.8 | 0.00 | 0.00 | 0.00 | 61 | 1053.3 |
| 20260505011000 | 21 | 190 | 4.8 | 4.8 | 0.00 | 0.00 | 0.00 | 61 | 1053.3 |
| 20260505010455 | 22 | 173 | 3.2 | 3.2 | 0.00 | 0.00 | 0.00 | 61 | 1053.2 |
| 20260505005951 | 22 | 174 | 4.8 | 4.8 | 0.00 | 0.00 | 0.00 | 60 | 1053.1 |
| 20260505005448 | 22 | 178 | 3.2 | 3.2 | 0.00 | 0.00 | 0.00 | 61 | 1053.1 |